Location: Pedholt
(56.0260°N, 10.2097°E)
Time: 05:26:50
(UTC+00:00)

AQUA - Pass Details

Date: 14 July 2020
Orbit: 701 x 704 km, 98.2° (Epoch: 14 August)

Event Time Altitude Azimuth Distance (km) Brightness Sun altitude
Rises 01:23:56 0° 16° (NNE) 3,109 9.2 -8.4°
Reaches altitude 10° 01:26:13 10° 19° (NNE) 2,186 8.0 -8.2°
Maximum altitude 01:31:00 73° 104° (ESE) 742 4.0 -7.9°
Drops below altitude 10° 01:35:45 10° 189° (S) 2,168 5.8 -7.6°
Enters shadow 01:36:15 - 190° (S) 2,363 5.9 -7.5°
